EHI
0 0 0 0 0 0 0 0 0 0 0 0 0 0 0 0 0 0 0 0 0 0 0 0 0 0 0 0 0 0 0 0 0 0 0 0 0 0 0 0 0 0 0
0 0 0 0 0 0 0 0 0 0 0 0 0 0 0 0 0 0 0 0 0 0 0 0 0 0 0 0 0 0 0 0 0 0 0 0 0 0 0 0 0 0 0
0 0 0 0 0 0 0 0 0 0 0 0 0 0 0 0 0 0 0 0 0 0 0 0 0 0 0 0 0 0 0 0 0 0 0 0 0 0 0 0 0 0 0
0 0 0 0 0 0 0 0 0 0 0 0 0 0 0 0 0 0 0 0 0 0 0 0 0 0 0 0 0 0 0 0 0 0 0 0 0 0 0 0 0 0 0
0 0 0 0 0 0 0 0 0 0 0 0 0 0 0 0 0 0 0 0 0 0 0 0 0 0 0 0 0 0 0 0 0 0 0 0 0 0 0 0 0 0 0
0 0 0 0 0 0 0 0 0 0 0 0 0 0 0 0 0 0 0 0 0 0 0 0 0 0 0 0 0 0 0 0 0 0 0 0 0 0 0 0 0 0 0
0 0 0 0 0 0 0 0 0 0 0 0 0 0 0 0 0 0 0 0 0 0 0 0 0 0 0 0 0 0 0 0 0 0 0 0 0 0 0 0 0 0 0
0 0 0 0 0 0 0 0 0 0 0 0 0 0 0 0 0 0 0 0 0 0 0 0 0 0 0 0 0 0 0 0 0 0 0 0 0 0 0 0 0 0 0
0 0 0 0 0 0 0 0 0 0 0 0 0 0 0 0 0 0 0 0 0 0 0 0 0 0 0 0 0 0 0 0 0 0 0 0 0 0 0 0 0 0 0
0 0 0 0 0 0 0 0 0 0 0 0 0 0 0 0 0 0 0 0 0 0 0 0 0 0 0 0 0 0 0 0 0 0 0 0 0 0 0 0 0 0 0
0 0 0 0 0 0 0 0 0 0 0 0 0 0 0 0 0 0 0 0 0 0 0 0 0 0 0 0 0 0 0 0 0 0 0 0 0 0 0 0 0 0 0
0 0 0 0 0 0 0 0 0 0 0 0 0 0 0 0 0 0 0 0 0 0 0 0 0 0 0 0 0 0 0 0 0 0 0 0 0 0 0 0 0 0 0
0 0 0 0 0 0 0 0 0 0 0 0 0 0 0 0 0 0 0 0 0 0 0 0 0 0 0 0 0 0 0 0 0 0 0 0 0 0 0 0 0 0 0
0 0 0 0 0 0 0 0 0 0 0 0 0 0 0 0 0 0 0 0 0 0 0 0 0 0 0 0 0 0 0 0 0 0 0 0 0 0 0 0 0 0 0
0 0 0 0 0 0 0 0 0 0 0 0 0 0 0 0 0 0 0 0 0 0 0 0 0 0 0 0 0 0 0 0 0 0 0 0 0 0 0 0 0 0 0
0 0 0 0 0 0 0 0 0 0 0 0 0 0 0 0 0 0 0 0 0 0 0 0 0 0 0 0 0 0 0 0 0 0 0 0 0 0 0 0 0 0 0
0 0 0 0 0 0 0 0 0 0 0 0 0 0 0 0 0 0 0 0 0 0 0 0 0 0 0 0 0 0 0 0 0 0 0 0 0 0 0 0 0 0 0
0 0 0 0 0 0 0 0 0 0 0 0 0 0 0 0 0 0 0 0 0 0 0 0 0 0 0 0 0 0 0 0 0 0 0 0 0 0 0 0 0 0 0
0 0 0 0 0 0 0 0 0 0 0 0 0 0 0 0 0 0 0 0 0 0 0 0 0 0 0 0 0 0 0 0 0 0 0 0 0 0 0 0 0 0 0
0 0 0 0 0 0 0 0 0 0 0 0 0 0 0 0 0 0 0 0 0 0 0 0 0 0 0 0 0 0 0 0 0 0 0 0 0 0 0 0 0 0 0
0 0 0 0 0 0 0 0 0 0 0 0 0 0 0 0 0 0 0 0 0 0 0 0 0 0 0 0 0 0 0 0 0 0 0 0 0 0 0 0 0 0 0
0 0 0 0 0 0 0 0 0 0 0 0 0 0 0 0 0 0 0 0 0 0 0 0 0 0 0 0 0 0 0 0 0 0 0 0 0 0 0 0 0 0 0
0 0 0 0 0 0 0 0 0 0 0 0 0 0 0 0 0 0 0 0 0 0 0 0 0 0 0 0 0 0 0 0 0 0 0 0 0 0 0 0 0 0 0
0 0 0 0 0 0 0 0 0 0 0 0 0 0 0 0 0 0 0 0 0 0 0 0 0 0 0 0 0 0 0 0 0 0 0 0 0 0 0 0 0 0 0
0 0 0 0 0 0 0 0 0 0 0 0 0 0 0 0 0 0 0 0 0 0 0 0 0 0 0 0 0 0 0 0 0 0 0 0 0 0 0 0 0 0 0
0 0 0 0 0 0 0 0 0 0 0 0 0 0 0 0 0 0 0 0 0 0 0 0 0 0 0 0 0 0 0 0 0 0 0 0 0 0 0 0 0 0 0
Wind_Speed
8 8 8 7 8 8 7 7 7 7 7 7 7 6 6 7 6 6 6 6 7 6 6 6 6 6 5 4 4 5 5 4 5 3 2 2 3 3 2 2 2 2 2
8 8 8 8 7 8 8 8 8 7 7 7 7 6 6 6 6 7 7 7 7 7 7 7 7 5 6 5 4 5 5 5 5 5 3 3 4 3 3 2 2 2 2
8 8 8 8 8 8 9 8 8 7 7 7 7 6 6 6 6 7 7 7 8 8 7 7 7 7 7 5 5 5 4 5 5 5 4 3 3 2 2 2 2 2 1
8 8 8 9 9 9 9 8 8 7 7 7 7 6 6 6 6 6 6 6 7 7 7 7 7 8 7 7 6 5 4 5 5 5 4 3 3 3 3 3 2 2 2
8 8 8 9 9 8 8 8 8 7 7 7 7 6 5 5 5 5 6 6 6 6 6 7 7 7 8 7 5 5 5 4 5 5 5 4 4 4 4 3 3 2 2
8 8 8 9 9 8 8 8 8 8 7 7 6 5 5 4 5 5 5 5 5 6 6 6 6 7 8 8 8 7 7 7 6 6 5 6 6 5 4 3 3 2 2
8 8 8 8 9 9 8 8 8 8 7 7 6 5 5 4 4 4 5 4 5 5 5 5 4 4 5 5 5 5 6 7 8 7 7 7 6 6 6 5 4 4 3
8 8 8 8 9 9 8 8 8 7 6 6 6 5 4 3 4 4 4 3 3 3 4 5 4 4 4 4 4 4 4 4 5 5 5 6 5 5 6 6 5 3 1
8 8 8 8 9 9 9 8 8 7 6 6 6 5 4 4 3 3 3 3 2 3 3 4 4 4 5 5 5 5 4 3 3 4 4 4 4 5 5 4 4 3 2
9 8 8 8 8 9 8 8 7 7 6 6 5 5 4 4 3 3 3 2 2 2 2 2 4 4 5 5 5 5 5 4 3 2 3 3 3 4 5 5 5 4 2
9 9 8 8 8 8 8 7 7 6 6 5 5 4 4 4 4 3 3 2 2 2 2 2 2 3 4 5 5 4 5 4 3 3 2 2 2 2 3 2 3 3 3
9 8 8 8 7 6 7 7 6 6 5 5 5 5 4 4 4 4 4 4 4 2 2 2 1 2 3 4 3 3 4 3 2 2 2 2 2 1 1 1 0 0 1
8 8 8 7 7 6 6 6 6 5 4 4 4 4 4 4 4 5 5 5 5 3 2 2 2 1 1 0 1 2 2 2 2 2 2 1 1 1 1 1 1 1 1
8 8 7 6 6 6 5 4 4 4 4 4 4 4 4 4 3 3 3 3 3 2 1 1 2 2 2 2 1 1 1 1 1 2 1 1 1 1 1 1 1 1 0
7 7 6 6 6 5 5 5 5 5 5 5 4 4 4 4 5 6 4 3 2 2 1 1 1 1 1 1 1 1 1 1 1 1 1 1 1 1 0 0 1 0 1
6 6 5 5 5 4 5 5 6 6 8 8 8 7 5 6 8 7 6 5 5 3 2 1 1 1 1 1 1 1 1 1 1 1 1 1 1 1 0 0 0 0 1
7 7 5 5 5 4 4 5 5 6 7 7 8 8 8 8 8 7 6 5 4 3 1 1 1 1 1 1 1 1 1 1 1 1 1 1 1 1 1 0 0 0 0
7 7 6 5 5 4 4 4 4 5 5 5 6 8 9 8 8 7 6 5 3 2 1 1 1 1 1 1 1 1 1 1 1 1 1 1 0 1 1 0 0 1 1
6 5 5 5 5 4 4 4 4 5 4 4 5 5 7 7 7 7 6 3 2 2 2 2 1 1 1 1 1 1 1 1 1 1 0 0 0 0 0 0 0 1 1
5 8 7 5 4 4 4 4 4 4 4 4 4 5 5 5 4 4 4 3 3 2 2 2 2 1 1 1 1 1 0 0 0 0 0 0 0 0 1 1 1 1 1
5 6 8 6 4 4 4 4 4 4 4 4 4 5 7 4 3 4 4 3 3 3 2 2 2 2 1 1 1 0 0 1 1 0 0 0 0 1 1 1 1 1 1
5 5 5 5 4 4 4 4 4 4 4 4 4 4 6 4 3 3 3 3 3 3 3 2 2 2 2 1 1 1 1 1 1 1 1 1 1 1 1 1 1 1 1
5 5 5 5 4 5 5 4 4 4 4 4 4 4 3 3 3 3 3 3 3 3 3 2 2 2 2 2 2 1 1 2 2 2 2 2 2 2 2 2 2 2 2
5 5 5 4 4 4 4 4 4 4 4 4 4 3 3 3 3 4 4 3 3 3 3 2 2 2 3 3 2 2 2 2 2 2 3 3 3 2 2 2 3 3 3
4 4 5 4 4 4 4 4 4 4 4 4 3 3 3 3 3 4 3 3 3 3 4 3 2 3 3 4 4 3 4 5 4 3 3 3 3 3 3 3 3 3 3
4 4 4 4 4 4 4 4 4 4 4 4 3 3 3 3 3 4 4 3 3 3 3 3 3 4 5 4 5 5 5 6 5 5 3 3 3 3 3 3 4 4 4
Wind_Direction
330 325 319 318 317 312 308 302 297 293 289 285 277 272 263 254 246 239 240 238 234 234 233 231 234 234 223 218 217 216 220 219 221 224 218 214 217 217 219 223 239 235 217
325 321 319 317 316 313 311 307 301 294 287 285 278 267 261 253 247 240 239 238 233 232 231 229 232 232 227 219 217 216 215 214 213 218 218 214 222 215 214 214 235 248 238
324 321 321 321 319 316 311 307 304 299 292 288 282 269 262 252 247 243 238 238 236 234 232 228 228 224 226 217 216 216 214 210 211 210 214 211 215 206 207 219 231 246 252
322 320 319 321 318 314 312 309 307 304 294 286 282 271 265 258 250 243 236 237 238 239 238 234 231 225 226 219 215 214 211 211 207 206 203 199 200 199 201 205 223 242 258
320 319 319 320 319 315 315 315 313 309 304 294 287 277 268 260 255 251 239 237 237 238 238 237 236 231 232 230 219 210 206 211 209 204 201 200 197 191 204 208 224 238 257
318 316 319 320 320 319 318 317 315 313 309 303 295 283 272 265 271 270 260 241 238 237 238 238 234 227 227 226 222 221 218 214 213 210 209 209 211 208 204 205 210 220 242
315 316 319 321 319 320 319 318 316 314 310 305 299 288 276 277 279 275 277 263 247 243 239 234 233 227 219 215 208 217 228 232 229 221 215 216 213 211 207 207 215 223 239
315 316 319 320 319 320 320 320 317 313 310 307 306 296 285 286 292 289 289 286 273 262 250 236 227 227 217 212 209 217 227 232 231 226 224 223 223 217 212 212 210 221 249
315 315 317 317 316 318 318 317 315 313 313 313 306 304 297 289 286 294 306 295 287 281 267 247 232 228 211 209 207 212 219 225 216 208 219 223 217 215 211 192 187 191 222
314 313 312 312 311 312 314 314 314 314 312 314 309 307 305 301 304 304 309 296 299 294 282 260 240 235 223 219 216 210 215 221 209 200 201 208 208 198 205 207 197 196 209
314 311 310 311 311 311 312 315 317 319 318 320 321 320 318 317 317 315 317 311 299 296 289 272 243 230 238 235 234 224 211 207 203 200 198 199 197 197 204 218 214 207 209
314 311 311 312 314 313 315 317 318 318 320 325 328 329 333 334 341 341 336 325 319 296 290 292 277 226 243 239 232 200 182 189 189 184 180 190 198 200 195 190 171 242 257
314 313 314 315 316 316 316 317 317 318 319 324 328 329 333 337 342 349 342 337 329 316 310 328 339 31 30 73 107 141 160 173 169 170 179 194 199 180 159 130 89 76 44
313 315 317 318 321 324 322 319 318 318 319 322 325 326 328 330 332 333 332 339 342 333 335 358 3 47 52 42 40 63 66 124 152 162 163 149 138 149 170 166 161 137 86
315 315 316 319 321 325 327 326 322 318 320 318 318 317 320 322 330 333 329 329 325 319 328 326 346 36 55 57 62 60 59 78 91 124 133 134 134 118 113 121 142 174 216
318 320 320 321 321 323 325 330 337 334 337 337 338 334 330 335 338 341 346 347 348 348 348 9 22 26 22 43 62 64 58 57 64 86 117 128 133 127 105 71 128 154 179
319 319 318 319 319 320 323 325 328 337 343 345 348 347 346 346 350 350 352 359 6 10 12 26 26 17 16 30 36 48 50 54 60 79 96 110 114 117 128 138 134 143 189
320 318 317 316 316 316 319 320 320 324 328 335 343 348 350 351 353 356 360 6 13 21 13 12 15 11 6 13 28 41 58 65 73 74 76 92 126 138 153 178 200 211 225
319 318 319 317 316 316 319 319 320 322 320 323 331 339 347 349 356 2 6 8 10 5 0 360 359 354 352 3 20 36 48 55 56 70 93 123 163 162 188 233 236 223 257
319 323 324 320 319 321 322 320 320 321 320 323 330 334 337 343 351 356 2 359 356 352 347 345 346 344 344 357 1 10 28 30 37 5 261 220 205 191 206 228 241 246 255
316 320 326 322 322 322 320 319 318 317 318 320 324 332 338 337 343 348 349 349 344 338 335 335 338 340 341 341 330 334 317 302 305 295 284 273 251 242 248 247 246 251 258
312 314 319 320 321 321 322 319 318 318 319 319 321 328 339 343 338 338 337 335 333 332 330 327 329 329 327 316 301 290 277 276 274 263 252 241 235 239 245 245 249 252 251
309 313 317 319 319 321 322 322 323 321 320 318 318 324 331 336 335 332 330 329 331 332 331 326 323 327 329 323 313 290 269 264 263 252 243 242 237 235 236 237 237 241 242
311 313 314 315 316 315 316 318 319 320 321 320 319 322 326 328 327 328 328 328 330 330 330 328 326 326 324 320 314 303 291 281 268 247 238 236 240 240 236 238 243 245 246
313 311 310 309 311 311 310 311 312 315 317 318 321 325 326 326 324 324 324 325 327 329 332 329 323 320 318 315 311 304 300 293 279 261 244 237 238 240 240 242 244 249 249
309 308 307 306 305 304 304 305 308 312 313 313 314 314 315 317 319 322 322 321 322 320 321 321 323 320 312 306 302 299 297 293 282 270 258 242 239 239 236 238 242 245 249